CZ-3C DEB, 40832

Orbit data source: Space-Track

CZ-3C DEB, 40832 is space debris in HEO originally from a launch on Sun, 31 Oct 2010 UTC launched from the Xichang Space Center, China (XSC). Debris objects in space refer to the collection of defunct objects orbiting the Earth. Examples of debris include non-operational satellites, rocket bodies, and fragments generated from explosions, collisions, or faulty payload assembly.

Loading next visibility...
Identifier
40832, 2010-057AZ
Orbit
HEO
Country
Flag of CNCN / PRC
Related business
Manufacturer
CALT
Mission
Spacecraft
Bus & Motor
Unknown
Mass
Unknown
Launch date (UTC)
2010-10-31 (15 years ago)
Launch vehicle
Unknown
Launch site
Xichang Space Center, China (XSC)
Object type
Payload
Rocket body
Debris
Shape & HBR
Unknown
Radar Cross Section
Medium (>0.1 m² and <1 m²)

Expand to show TLE details & history
Last TLE update: 10 months ago

TLE from 10 months ago
0 CZ-3C DEB
1 40832U 10057AZ  24307.18927890  .00000428  00000-0  37392-2 0  9990
2 40832  19.9495 238.7356 7172897 268.6665  16.1871  2.26618630 79802
Epoch: 2024-11-02T04:32Z
TLE epoch observation values (Epoch: 2024-11-02T04:32:33.696Z)
Latitude
0.00007°
Longitude
128.58711°
Altitude
5,724.723 km
Speed
7.042 km/s
True Right ascension
15h 54m 41s
True Declination
0° 00' 00"
Sunlit
Object was in daylight at epoch
Visualization orbit readout
Latitude
Unknown
Longitude
Unknown
Altitude
Unknown
Speed
Unknown
Apparent Right ascension
Unknown
Apparent Declination
Unknown
Sunlit
N/A
Visualization observer readout
Local Sidereal Time
16:50:17
Azimuth
Unknown
Elevation
Unknown
Doppler factor
Unknown
Orbital elements
Apogee altitude
35,674.489 km
Perigee altitude
544.813 km
Semi-major axis
24,487.788 km
Eccentricity
0.71729
Inclination
19.9495°
RAAN
238.7356°
Arg. of periapsis
268.6665°
True anomaly
91.8879°
Mean anomaly
16.1871°
Eccentric anomaly
45.50007°
Mean motion
0.56639 °/min
Orbital period
635.6 mins
BSTAR
0.0037392
Loading maneuver chart data...
Computing Atmospheric mass density...
Loading historical data...
Loading historical data...
Loading historical data...
Loading historical data...
Loading historical data...
Loading historical data...
Loading historical data...

Documentation

Showing up to 5 results
|